STARLINK-4461 (53503 NORAD) Tracking and Keplerian Element Data

This shows tracking and keplerian element data for the satellite.

Feedback or suggestion? Click here.




ElementValue
Catalog53503
NameSTARLINK-4461
Epoch Orbit1552
Epoch Day325.2619161
Epoch Year2022
RAAN84.3251
Inclination97.6559
Eccentricity0.0002407
Argument of Perigee23.1091
Mean Anonmoly337.0241
Mean Motion15.01257685
Decay Rate7E-07
L11 53503U 22099AQ 22325.26191610 .00000070 00000+0 10079-4 0 9995
L22 53503 97.6559 84.3251 0002407 23.1091 337.0241 15.01257685 15524



Live tracking and technical data element details for STARLINK-4461 (NORAD 53503). STARLINK-4461 can be tracked NOW for your location showing map with azimuth and elevation plus other details from your city location.







IsCatalogInMostPopularTable: catalog: 53503, numindb: 7
Update: records affected: 1



GetName: 53503 STARLINK-4461

Hit Count: updated at: Thu, 08 Dec 2022 20:36:07 GMT